Regional Weather Roundup
Issued by NWS

Home | Current Version | Previous Version | Text Only | Print | Product List | Glossary On
Versions: 1 2 3 4 5 6 7 8 9 10 11 12 13 14 15 16 17 18 19 20 21 22 23 24 25 26 27 28 29 30 31 32 33 34 35 36 37 38 39 40 41 42 43 44 45 46 47 48 49 50
000
ASUS43 KOAX 262310
RWRNE

WEATHER ROUNDUP FOR NEBRASKA
NATIONAL WEATHER SERVICE OMAHA NE
500 PM CST FRI DEC 26 2014

NOTES: SATELLITE DATA IS BEING USED TO AUGMENT CLOUD COVER ABOVE
       12000 FEET.
       "FAIR" INDICATES FEW OR NO CLOUDS BELOW 12,000 FEET WITH NO
       SIGNIFICANT WEATHER AND/OR OBSTRUCTIONS TO VISIBILITY.

  * THESE STATIONS DO NOT REPORT WEATHER SUCH AS RAIN...SNOW OR FOG.

NEZ001>004-019>022-054>056-270000-
NEBRASKA PANHANDLE

CITY           SKY/WX    TMP DP  RH WIND       PRES   REMARKS
SCOTTSBLUFF    LGT SNOW  19  16  88 CALM      30.04R FOG
ALLIANCE       LGT SNOW  18  14  84 N9        30.02R FOG     WCI   7
CHADRON        CLOUDY    20  14  77 E6        30.08S WCI  12
KIMBALL        FLURRIES  16  12  84 N7        29.96R WCI   6
SIDNEY         CLOUDY    16  12  84 N8        30.01R WCI   5
$$

NEZ057>060-069>072-079>082-270000-
SOUTHWEST NEBRASKA

CITY           SKY/WX    TMP DP  RH WIND       PRES   REMARKS
NORTH PLATTE   LGT SNOW  22  18  85 N13       30.03S FOG     WCI  10
IMPERIAL       LGT SNOW  21  16  81 N16       30.02S WCI   7
LEXINGTON      LGT SNOW  25  21  87 N14       30.02F VSB 3/4 WCI  13
MCCOOK         LGT SNOW  24  21  88 N12       30.02R VSB 3/4 WCI  13
OGALLALA       LGT SNOW  21  19  90 N9        30.04R VSB 1   WCI  11
$$

NEZ005>010-023>029-035>040-094-270000-
NORTH CENTRAL NEBRASKA

CITY           SKY/WX    TMP DP  RH WIND       PRES   REMARKS
VALENTINE      CLOUDY    20  17  88 N13       30.08F WCI   7
AINSWORTH      LGT SNOW  19  17  91 N15       30.07S WCI   5
BROKEN BOW     LGT SNOW  24  19  81 N20       30.03R WCI  10
O`NEILL        LGT SNOW  23  21  95 N13G20    30.07S WCI  11
ORD            CLOUDY    24  17  74 N20       30.03R WCI  10
THEDFORD       LGT SNOW  22  19  91 N9        30.05R WCI  11
$$

NEZ041-046>049-061>064-073>077-083>087-270000-
SOUTH CENTRAL NEBRASKA

CITY           SKY/WX    TMP DP  RH WIND       PRES   REMARKS
GRAND ISLAND   CLOUDY    25  22  88 N13       30.02R WCI  14
AURORA         MIX PCPN  27  26  96 N17       30.00S WCI  15
HASTINGS       LGT SNOW  26  23  88 N14       30.01R VSB 3/4 WCI  14
HEBRON         CLOUDY    30  26  87 N10       30.00S WCI  21
HOLDREGE       LGT SNOW  24  22  91 N13G20    30.00S WCI  13
KEARNEY *      CLOUDY    25  21  86 NW14      30.02R WCI  13
YORK           LGT SNOW  28  27  93 N17       30.00R WCI  16
$$

NEZ011>018-030>034-042>045-270000-
NORTHEAST NEBRASKA

CITY           SKY/WX    TMP DP  RH WIND       PRES   REMARKS
NORFOLK        CLOUDY    27  23  85 N16       30.02S FOG     WCI  15
ALBION         CLOUDY    25  20  81 N18G24    30.01S WCI  11
BLAIR          CLOUDY    32  30  90 N13G20    29.98S WCI  23
COLUMBUS *     CLOUDY    27  21  80 N14G20    30.02S WCI  15
FREMONT        CLOUDY    32  29  88 N9G18     30.00F WCI  24
TEKAMAH        CLOUDY    33  29  85 N15       30.02S WCI  23
WAYNE          CLOUDY    28  25  86 N14G21    30.04R WCI  17
$$

NEZ050>053-065>068-078-088>093-270000-
SOUTHEAST NEBRASKA

CITY           SKY/WX    TMP DP  RH WIND       PRES   REMARKS
LINCOLN        CLOUDY    31  27  85 N16       30.01R WCI  20
OMAHA EPPLEY   CLOUDY    33  30  88 N13       30.00S WCI  24
BEATRICE       CLOUDY    31  29  91 N12       30.00R FOG     WCI  22
FALLS CITY     CLOUDY    35  31  85 N6        29.96S WCI  30
NEBRASKA CITY  CLOUDY    33  33 100 N10       29.98R FOG     WCI  24
PLATTSMOUTH    CLOUDY    32  30  91 N10       29.97S WCI  24
$$

NEZ044-045-051>053-067-270000-
OMAHA AREA

CITY           SKY/WX    TMP DP  RH WIND       PRES   REMARKS
OMAHA EPPLEY   CLOUDY    33  30  88 N13       30.00S WCI  24
BLAIR          CLOUDY    32  30  90 N13G20    29.98S WCI  23
FREMONT        CLOUDY    32  29  88 N9G18     30.00F WCI  24
MILLARD        CLOUDY    33  29  85 N7        29.99R WCI  27
OFFUTT AFB     CLOUDY    33  29  86 N8        29.99R WCI  26
PLATTSMOUTH    CLOUDY    32  30  91 N10       29.97S WCI  24
WAHOO          CLOUDY    32  28  85 N14       29.98F WCI  22
$$


USA.gov is the U.S. government's official web portal to all federal, state and local government web resources and services.